Weather History for Eastover, SC

Change the Weather History Date:

Saturday, December 21, 2013

  Actual Average Record
Temperature  
Mean Temperature 62 °F -  
Max Temperature 79 °F 53 °F 79 °F (2013)
Min Temperature 45 °F 32 °F 17 °F (1996)
Degree Days  
Heating Degree Days 3    
Growing Degree Days 12 (Base 50)    
Moisture  
Dew Point 58 °F    
Average Humidity 84    
Maximum Humidity 100    
Minimum Humidity 53    
Precipitation  
Precipitation 0.00 in - - ()
Sea Level Pressure  
Sea Level Pressure 30.12 in    
Wind  
Wind Speed 5 mph (SSE)    
Max Wind Speed 15 mph    
Max Gust Speed 24 mph    
Visibility 10 miles    
Events      
Averages and records for this station are not official NWS values.
T = Trace of Precipitation, MM = Missing Value Source: NWS Daily Summary

Daily Weather History Graph

Daily Weather History Graph

Search for Another Location

Airport:

Trip Planner

Search our weather history database for the weather conditions in past years. The results will help you decide how hot, cold, wet, or windy it might be!

Date:

Astronomy

Dec. 21, 2013 Rise Set
Actual Time 7:24 AM EST 5:18 PM EST
Civil Twilight 6:56 AM EST 5:46 PM EST
Nautical Twilight 6:25 AM EST 6:17 PM EST
Astronomical Twilight 5:55 AM EST 6:47 PM EST
Moon 9:23 PM EST (12/21) 9:59 AM EST (12/21)
Length of Visible Light 10h 49m
Length of Day
9h 53m
Waning Gibbous, 84% of the Moon is Illuminated
Dec 21
Waning Gibbous
Dec 25
Last Quarter
Jan 1
New
Jan 7
First Quarter
Jan 15
Full

Hourly Weather History & Observations

Time (EST) Temp. Windchill Dew Point Humidity Pressure Visibility Wind Dir Wind Speed Gust Speed Precip Events Conditions
12:58 AM 46.6 °F - 46.2 °F 99% 30.17 in 10.0 mi East 2.3 mph - N/A   Clear
1:58 AM 46.0 °F - 45.9 °F 99% 30.17 in 10.0 mi Calm Calm - N/A   Clear
2:58 AM 45.9 °F - 45.5 °F 99% 30.17 in 10.0 mi Calm Calm - N/A   Clear
3:58 AM 46.0 °F - 45.7 °F 99% 30.16 in 10.0 mi NNW 1.2 mph - N/A   Clear
4:58 AM 46.2 °F - 45.9 °F 99% 30.15 in 10.0 mi ENE 2.3 mph - N/A   Clear
5:58 AM 46.2 °F 45.0 °F 45.9 °F 99% 30.15 in 10.0 mi East 3.5 mph - N/A   Clear
6:58 AM 46.6 °F - 46.4 °F 99% 30.16 in 10.0 mi East 2.3 mph - N/A   Clear
7:58 AM 48.0 °F - 47.7 °F 99% 30.16 in 3.0 mi ESE 4.6 mph - N/A   Mostly Cloudy
8:58 AM 56.1 °F - 56.1 °F 100% 30.16 in 4.0 mi SE 4.6 mph - N/A   Overcast
9:58 AM 59.4 °F - 58.6 °F 97% 30.17 in 10.0 mi SE 3.5 mph - N/A   Overcast
10:58 AM 66.7 °F - 58.5 °F 75% 30.16 in 10.0 mi Variable 2.3 mph - N/A   Overcast
11:58 AM 72.0 °F - 60.3 °F 67% 30.13 in 10.0 mi South 4.6 mph - N/A   Overcast
12:58 PM 77.0 °F - 61.0 °F 58% 30.09 in 10.0 mi South 9.2 mph - N/A   Overcast
1:58 PM 79.5 °F - 60.8 °F 53% 30.06 in 10.0 mi SSE 12.7 mph - N/A   Overcast
2:58 PM 79.3 °F - 61.2 °F 54% 30.05 in 10.0 mi South 15.0 mph 23.0 mph N/A   Overcast
3:58 PM 77.9 °F - 61.3 °F 57% 30.05 in 10.0 mi South 15.0 mph 21.9 mph N/A   Mostly Cloudy
4:58 PM 75.4 °F - 61.3 °F 62% 30.06 in 10.0 mi SSE 10.4 mph - N/A   Clear
5:58 PM 72.3 °F - 61.3 °F 68% 30.08 in 10.0 mi SSE 11.5 mph - N/A   Clear
6:58 PM 71.1 °F - 63.5 °F 77% 30.09 in 10.0 mi SSE 9.2 mph - N/A   Clear
7:58 PM 70.3 °F - 65.3 °F 84% 30.09 in 10.0 mi South 12.7 mph 18.4 mph N/A   Partly Cloudy
8:58 PM 69.1 °F - 66.0 °F 90% 30.10 in 10.0 mi SSE 8.1 mph - N/A   Clear
9:18 PM 69.8 °F - 66.2 °F 88% 30.09 in 10.0 mi SSE 10.4 mph - N/A   Mostly Cloudy
9:58 PM 69.8 °F - 67.5 °F 92% 30.09 in 10.0 mi SSE 10.4 mph - N/A   Overcast
10:38 PM 71.6 °F - 68.0 °F 88% 30.09 in 10.0 mi South 10.4 mph 18.4 mph N/A   Overcast
10:58 PM 71.2 °F - 67.3 °F 87% 30.10 in 10.0 mi South 13.8 mph 24.2 mph N/A   Overcast
11:18 PM 71.6 °F - 66.2 °F 83% 30.09 in 10.0 mi South 12.7 mph - N/A   Overcast
11:58 PM 71.1 °F - 66.7 °F 86% 30.09 in 10.0 mi South 10.4 mph - N/A   Overcast